Other Surface Observations
Issued by NWS Charleston, SC

Home | Current Version | Previous Version | Text Only | Print | Product List | Glossary On
Versions: 1 2 3 4 5 6 7 8 9 10 11 12 13 14 15 16 17 18 19 20 21 22 23 24 25 26 27 28 29 30 31 32 33 34 35 36 37 38 39 40 41 42 43 44 45 46 47 48 49 50
000
SXUS52 KCHS 180725
OSOCHS

MARINE OBSERVATIONS
NATIONAL WEATHER SERVICE CHARLESTON SC
200 AM EST THU DEC 18 2014

...DOWNTOWN CHARLESTON AND HARBOR...

CITY           SKY/WX    TMP DP  RH WIND       PRES   REMARKS
WATERFRONT PRK   N/A     48 N/A N/A W5          N/A
FORT JOHNSON   NOT AVBL

...LAKE MOULTRIE...

CITY           SKY/WX    TMP DP  RH WIND       PRES   REMARKS
PINOPOLIS        N/A     48  45  87 CALM      30.00F

...LAKE AND SUPPLEMENTAL COASTAL OBSERVATIONS...

STATION/POSITION TIME  TEMP    WIND        PRES    WAVE   SWELL
                       AIR SEA DIR/SP/G            HT/PER HT/PER/DIR
                 (UTC) (F)     (DEG/KT/KT) (MB)    (FT/S) (FT/S/D)
FORT PULASKI     0700   51 56  280/  7/  9 1020.2R
SAPELO ISLAND    0600   48     250/  3     1020.0S
UPR LAKE MARION  NOT AVBL
WINYAH BAY       0700   44     280/  1     1018.0S
LAKE MURRAY      0600   46     290/  4/  7 1017.9F
ACE BASIN NERRS  0700   40        CALM     1019.0S


...C-MAN AND BUOY OBSERVATIONS...

STATION/POSITION TIME  TEMP    WIND        PRES    WAVE   SWELL
                       AIR SEA DIR/SP/G            HT/PER HT/PER/DIR
                 (UTC) (F)     (DEG/KT/KT) (MB)    (FT/S) (FT/S/D)
BUOY 41004       0700   61 73  280/ 10/ 16 1018.8F   2/10   2/10
BUOY 41008       0700   56 57  280/  8/ 10 1019.8F   1/10   2/100/10
FOLLY BEACH CMAN 0700   48     270/  4/  5 1019.5S
CAPERS NS BUOY   0600   53     240/  8/  8   N/A
FRIPP NS BUOY    NOT AVBL
5E ST. MARYS GA  0700      60                N/A     1/11


STATION/POSITION TIME  TEMP    WIND        PRES    WAVE   SWELL
                       AIR SEA DIR/SP/G            HT/PER HT/PER/DIR
                 (UTC) (F)     (DEG/KT/KT) (MB)    (FT/S) (FT/S/D)
FRYING PAN BUOY  0700   58 65  280/ 10/ 12 1019.2R   2/11   2/120/11
BUOY 41025       0700   57                 1017.3F   3/ 4
CAPE LOOKOUT NC  0700   54     280/  9/ 10 1017.9R
BUOY 41002       0623   69 72  260/ 10/ 14 1018.4F   4/ 7   3/250/ 7
BUOY 41010       0700   70 76  280/  8/ 12 1019.9F   3/10   2/110/10
ST AUGUSTINE FL  0700   50     290/  7/  8 1021.1R

$$



USA.gov is the U.S. government's official web portal to all federal, state and local government web resources and services.